Вернуться в каталог

STARLINK-31859

АктивенСвязьVLEO
NORAD 59848·PAYLOAD·🇺🇸 United States

Запущен May 23, 2024 с Cape Canaveral Space Force Station

Loading…

Ближайшие Пролёты (ближайшие 24 часа)

TLE

СвежийSource: CelesTrak SupGP

Эпоха: Sep 14, 2026, 22:40 UTC

1 59848C 24097P   26257.94493056  .00072091  00000+0  22418-2 0  2572
2 59848  42.9976 277.3070 0004363  81.3636   4.2927 15.32456982    12

Отслеживайте STARLINK-31859 в реальном времени с AllMySat

Download on the App Store